| time (UTC) | temp F | wind direction | speed MPH | gust MPH | rain 1hr in | rain 24hr in | rain mn in | humidity % | barometer mb |
| 20260506015505 | 70 | 331 | 8.0 | 15.0 | 0.00 | 0.00 | 0.00 | 47 | 1013.3 |
| 20260506014505 | 70 | 322 | 8.0 | 14.0 | 0.00 | 0.00 | 0.00 | 46 | 1013.2 |
| 20260506014006 | 71 | 355 | 8.0 | 15.0 | 0.00 | 0.00 | 0.00 | 46 | 1013.2 |
| 20260506013504 | 71 | 340 | 8.0 | 15.0 | 0.00 | 0.00 | 0.00 | 46 | 1013.2 |
| 20260506013003 | 71 | 316 | 8.0 | 14.0 | 0.00 | 0.00 | 0.00 | 46 | 1013.1 |
| 20260506012504 | 71 | 331 | 7.0 | 17.0 | 0.00 | 0.00 | 0.00 | 46 | 1013.1 |
| 20260506012005 | 72 | 335 | 7.0 | 16.0 | 0.00 | 0.00 | 0.00 | 46 | 1013.1 |
| 20260506011004 | 72 | 324 | 8.0 | 18.0 | 0.00 | 0.00 | 0.00 | 46 | 1013.0 |
| 20260506010505 | 72 | 297 | 7.0 | 16.0 | 0.00 | 0.00 | 0.00 | 45 | 1013.0 |
| 20260506010004 | 72 | 327 | 7.0 | 15.0 | 0.00 | 0.00 | 0.00 | 46 | 1013.0 |
| 20260506005504 | 72 | 337 | 6.0 | 17.0 | 0.00 | 0.00 | 0.00 | 47 | 1013.0 |
| 20260506004504 | 72 | 335 | 8.0 | 10.0 | 0.00 | 0.00 | 0.00 | 47 | 1013.0 |
| 20260506004005 | 72 | 334 | 8.0 | 18.0 | 0.00 | 0.00 | 0.00 | 47 | 1013.0 |
| 20260506003504 | 72 | 336 | 8.0 | 18.0 | 0.00 | 0.00 | 0.00 | 46 | 1013.0 |
| 20260506003005 | 72 | 313 | 8.0 | 14.0 | 0.00 | 0.00 | 0.00 | 45 | 1012.9 |
| 20260506002503 | 74 | 319 | 7.0 | 7.0 | 0.00 | 0.00 | 0.00 | 42 | 1012.9 |
| 20260506002005 | 74 | 319 | 7.0 | 7.0 | 0.00 | 0.00 | 0.00 | 42 | 1012.9 |
| 20260506001504 | 74 | 319 | 7.0 | 13.0 | 0.00 | 0.00 | 0.00 | 42 | 1012.9 |
| 20260506000004 | 75 | 337 | 6.0 | 5.0 | 0.00 | 0.00 | 0.00 | 39 | 1012.7 |
| 20260505235505 | 75 | 337 | 6.0 | 5.0 | 0.00 | 0.00 | 0.00 | 39 | 1012.7 |
| 20260505235004 | 75 | 337 | 6.0 | 10.0 | 0.00 | 0.00 | 0.00 | 39 | 1012.7 |
| 20260505234504 | 75 | 346 | 6.0 | 12.0 | 0.00 | 0.00 | 0.00 | 37 | 1012.7 |
| 20260505234004 | 75 | 344 | 6.0 | 12.0 | 0.00 | 0.00 | 0.00 | 38 | 1012.7 |
| 20260505233504 | 76 | 335 | 5.0 | 16.0 | 0.00 | 0.00 | 0.00 | 37 | 1012.7 |
| 20260505233005 | 76 | 306 | 5.0 | 10.0 | 0.00 | 0.00 | 0.00 | 38 | 1012.6 |
| 20260505232504 | 76 | 317 | 6.0 | 12.0 | 0.00 | 0.00 | 0.00 | 37 | 1012.6 |
| 20260505232005 | 76 | 321 | 6.0 | 13.0 | 0.00 | 0.00 | 0.00 | 37 | 1012.6 |
| 20260505231504 | 76 | 337 | 5.0 | 15.0 | 0.00 | 0.00 | 0.00 | 37 | 1012.7 |
| 20260505230504 | 76 | 336 | 7.0 | 10.0 | 0.00 | 0.00 | 0.00 | 37 | 1012.7 |
| 20260505230004 | 76 | 350 | 7.0 | 10.0 | 0.00 | 0.00 | 0.00 | 37 | 1012.8 |
| 20260505225505 | 75 | 307 | 6.0 | 13.0 | 0.00 | 0.00 | 0.00 | 37 | 1012.8 |
| 20260505225004 | 76 | 339 | 4.0 | 13.0 | 0.00 | 0.00 | 0.00 | 36 | 1012.8 |
| 20260505224505 | 76 | 0 | 2.0 | 2.0 | 0.00 | 0.00 | 0.00 | 37 | 1012.8 |
| 20260505224004 | 76 | 41 | 6.0 | 2.0 | 0.00 | 0.00 | 0.00 | 37 | 1012.8 |
| 20260505223506 | 76 | 41 | 6.0 | 2.0 | 0.00 | 0.00 | 0.00 | 37 | 1012.8 |
| 20260505222504 | 76 | 283 | 5.0 | 15.0 | 0.00 | 0.00 | 0.00 | 37 | 1012.7 |
| 20260505222004 | 76 | 343 | 5.0 | 10.0 | 0.00 | 0.00 | 0.00 | 36 | 1012.7 |
| 20260505221504 | 75 | 337 | 5.0 | 3.0 | 0.00 | 0.00 | 0.00 | 40 | 1012.9 |
| 20260505221005 | 75 | 337 | 5.0 | 3.0 | 0.00 | 0.00 | 0.00 | 40 | 1012.9 |
| 20260505220503 | 75 | 337 | 5.0 | 9.0 | 0.00 | 0.00 | 0.00 | 40 | 1012.9 |
| 20260505220005 | 74 | 336 | 4.0 | 12.0 | 0.00 | 0.00 | 0.00 | 40 | 1012.9 |
| 20260505215504 | 74 | 270 | 5.0 | 6.0 | 0.00 | 0.00 | 0.00 | 38 | 1012.9 |
| 20260505215005 | 74 | 270 | 5.0 | 6.0 | 0.00 | 0.00 | 0.00 | 38 | 1012.9 |
| 20260505214504 | 74 | 270 | 5.0 | 6.0 | 0.00 | 0.00 | 0.00 | 38 | 1013.0 |
| 20260505213503 | 75 | 338 | 5.0 | 12.0 | 0.00 | 0.00 | 0.00 | 38 | 1013.0 |
| 20260505213004 | 75 | 292 | 5.0 | 10.0 | 0.00 | 0.00 | 0.00 | 39 | 1013.1 |
| 20260505212506 | 74 | 316 | 3.0 | 9.0 | 0.00 | 0.00 | 0.00 | 40 | 1013.1 |
| 20260505212004 | 73 | 311 | 3.0 | 13.0 | 0.00 | 0.00 | 0.00 | 41 | 1013.1 |
| 20260505211504 | 73 | 322 | 3.0 | 8.0 | 0.00 | 0.00 | 0.00 | 39 | 1013.2 |
| 20260505211004 | 74 | 28 | 6.0 | 7.0 | 0.00 | 0.00 | 0.00 | 40 | 1013.2 |
| 20260505210504 | 74 | 28 | 6.0 | 7.0 | 0.00 | 0.00 | 0.00 | 40 | 1013.2 |
| 20260505210006 | 74 | 28 | 6.0 | 10.0 | 0.00 | 0.00 | 0.00 | 40 | 1013.3 |
| 20260505205503 | 74 | 345 | 3.0 | 14.0 | 0.00 | 0.00 | 0.00 | 38 | 1013.3 |
| 20260505205004 | 73 | 0 | 0.0 | 2.0 | 0.00 | 0.00 | 0.00 | 39 | 1013.3 |
| 20260505204505 | 73 | 243 | 6.0 | 2.0 | 0.00 | 0.00 | 0.00 | 39 | 1013.3 |
| 20260505203507 | 73 | 243 | 6.0 | 8.0 | 0.00 | 0.00 | 0.00 | 39 | 1013.3 |
| 20260505203003 | 72 | 311 | 6.0 | 12.0 | 0.00 | 0.00 | 0.00 | 41 | 1013.4 |
| 20260505202504 | 72 | 309 | 5.0 | 13.0 | 0.00 | 0.00 | 0.00 | 40 | 1013.4 |
| 20260505202003 | 72 | 337 | 5.0 | 12.0 | 0.00 | 0.00 | 0.00 | 40 | 1013.4 |
| 20260505201504 | 72 | 271 | 7.0 | 12.0 | 0.00 | 0.00 | 0.00 | 40 | 1013.5 |
| 20260505201005 | 72 | 301 | 7.0 | 15.0 | 0.00 | 0.00 | 0.00 | 40 | 1013.5 |
| 20260505195503 | 71 | 308 | 6.0 | 12.0 | 0.00 | 0.00 | 0.00 | 41 | 1013.4 |
| 20260505194505 | 71 | 355 | 4.0 | 7.0 | 0.00 | 0.00 | 0.00 | 40 | 1013.4 |
| 20260505194003 | 71 | 354 | 5.0 | 7.0 | 0.00 | 0.00 | 0.00 | 40 | 1013.4 |
| 20260505193505 | 71 | 354 | 5.0 | 7.0 | 0.00 | 0.00 | 0.00 | 40 | 1013.4 |
| 20260505193004 | 71 | 347 | 5.0 | 9.0 | 0.00 | 0.00 | 0.00 | 40 | 1013.3 |
| 20260505192505 | 71 | 0 | 6.0 | 12.0 | 0.00 | 0.00 | 0.00 | 39 | 1013.3 |
| 20260505192003 | 71 | 14 | 3.0 | 7.0 | 0.00 | 0.00 | 0.00 | 41 | 1013.3 |
| 20260505191504 | 71 | 35 | 5.0 | 3.0 | 0.00 | 0.00 | 0.00 | 39 | 1013.4 |
| 20260505191003 | 71 | 35 | 5.0 | 3.0 | 0.00 | 0.00 | 0.00 | 39 | 1013.4 |
| 20260505190504 | 71 | 35 | 5.0 | 10.0 | 0.00 | 0.00 | 0.00 | 39 | 1013.4 |
| 20260505185504 | 71 | 200 | 5.0 | 10.0 | 0.00 | 0.00 | 0.00 | 39 | 1013.4 |
| 20260505185005 | 71 | 335 | 5.0 | 8.0 | 0.00 | 0.00 | 0.00 | 40 | 1013.4 |
| 20260505184504 | 72 | 285 | 5.0 | 9.0 | 0.00 | 0.00 | 0.00 | 39 | 1013.4 |
| 20260505184004 | 71 | 283 | 3.0 | 7.0 | 0.00 | 0.00 | 0.00 | 42 | 1013.4 |
| 20260505183505 | 70 | 43 | 3.0 | 5.0 | 0.00 | 0.00 | 0.00 | 42 | 1013.4 |
| 20260505182505 | 70 | 43 | 3.0 | 10.0 | 0.00 | 0.00 | 0.00 | 42 | 1013.5 |
| 20260505182004 | 70 | 344 | 3.0 | 8.0 | 0.00 | 0.00 | 0.00 | 42 | 1013.5 |
| 20260505181504 | 69 | 302 | 2.0 | 8.0 | 0.00 | 0.00 | 0.00 | 42 | 1013.6 |
| 20260505180504 | 69 | 310 | 3.0 | 5.0 | 0.00 | 0.00 | 0.00 | 41 | 1013.6 |
| 20260505180004 | 68 | 291 | 3.0 | 6.0 | 0.00 | 0.00 | 0.00 | 42 | 1013.6 |
| 20260505175503 | 67 | 266 | 5.0 | 7.0 | 0.00 | 0.00 | 0.00 | 42 | 1013.6 |
| 20260505175003 | 67 | 275 | 5.0 | 6.0 | 0.00 | 0.00 | 0.00 | 44 | 1013.6 |
| 20260505174503 | 67 | 352 | 3.0 | 10.0 | 0.00 | 0.00 | 0.00 | 42 | 1013.6 |
| 20260505174006 | 67 | 274 | 3.0 | 7.0 | 0.00 | 0.00 | 0.00 | 45 | 1013.6 |
| 20260505172505 | 66 | 317 | 2.0 | 6.0 | 0.00 | 0.00 | 0.00 | 43 | 1013.6 |
| 20260505172004 | 65 | 347 | 2.0 | 5.0 | 0.00 | 0.00 | 0.00 | 44 | 1013.6 |
| 20260505171003 | 64 | 325 | 5.0 | 5.0 | 0.00 | 0.00 | 0.00 | 45 | 1013.6 |
| 20260505170504 | 64 | 325 | 5.0 | 9.0 | 0.00 | 0.00 | 0.00 | 45 | 1013.6 |
| 20260505170005 | 64 | 339 | 5.0 | 6.0 | 0.00 | 0.00 | 0.00 | 46 | 1013.7 |
| 20260505165004 | 64 | 335 | 3.0 | 8.0 | 0.00 | 0.00 | 0.00 | 46 | 1013.7 |
| 20260505164504 | 63 | 298 | 2.0 | 6.0 | 0.00 | 0.00 | 0.00 | 49 | 1013.6 |
| 20260505164004 | 63 | 298 | 2.0 | 6.0 | 0.00 | 0.00 | 0.00 | 49 | 1013.6 |
| 20260505163506 | 63 | 298 | 2.0 | 6.0 | 0.00 | 0.00 | 0.00 | 49 | 1013.6 |
| 20260505162504 | 62 | 303 | 2.0 | 7.0 | 0.00 | 0.00 | 0.00 | 51 | 1013.6 |
| 20260505162004 | 62 | 310 | 2.0 | 6.0 | 0.00 | 0.00 | 0.00 | 54 | 1013.6 |
| 20260505161004 | 60 | 340 | 1.0 | 3.0 | 0.00 | 0.00 | 0.00 | 57 | 1013.7 |
| 20260505160507 | 60 | 336 | 2.0 | 2.0 | 0.00 | 0.00 | 0.00 | 57 | 1013.7 |
| 20260505153005 | 57 | 267 | 2.0 | 5.0 | 0.00 | 0.00 | 0.00 | 62 | 1013.6 |
| 20260505152504 | 56 | 217 | 2.0 | 5.0 | 0.00 | 0.00 | 0.00 | 66 | 1013.6 |
| 20260505152004 | 56 | 134 | 2.0 | 5.0 | 0.00 | 0.00 | 0.00 | 67 | 1013.6 |
| 20260505151504 | 55 | 152 | 2.0 | 5.0 | 0.00 | 0.00 | 0.00 | 68 | 1013.5 |
| 20260505151004 | 54 | 137 | 2.0 | 3.0 | 0.00 | 0.00 | 0.00 | 71 | 1013.5 |
| 20260505125004 | 48 | 109 | 2.0 | 3.0 | 0.00 | 0.00 | 0.00 | 67 | 1012.5 |
| 20260505124006 | 50 | 339 | 2.0 | 6.0 | 0.00 | 0.00 | 0.00 | 65 | 1012.4 |
| 20260505123504 | 52 | 321 | 2.0 | 2.0 | 0.00 | 0.00 | 0.00 | 61 | 1012.4 |
| 20260505123003 | 52 | 321 | 2.0 | 2.0 | 0.00 | 0.00 | 0.00 | 61 | 1012.2 |
| 20260505122504 | 52 | 321 | 2.0 | 5.0 | 0.00 | 0.00 | 0.00 | 61 | 1012.2 |
| 20260505122004 | 52 | 338 | 2.0 | 5.0 | 0.00 | 0.00 | 0.00 | 61 | 1012.2 |
| 20260505121503 | 52 | 324 | 2.0 | 6.0 | 0.00 | 0.00 | 0.00 | 62 | 1012.2 |
| 20260505121005 | 52 | 324 | 2.0 | 3.0 | 0.00 | 0.00 | 0.00 | 62 | 1012.2 |
| 20260505120504 | 52 | 299 | 3.0 | 7.0 | 0.00 | 0.00 | 0.00 | 63 | 1012.2 |
| 20260505115503 | 52 | 333 | 2.0 | 5.0 | 0.00 | 0.00 | 0.00 | 63 | 1012.0 |
| 20260505115004 | 52 | 333 | 2.0 | 5.0 | 0.00 | 0.00 | 0.00 | 63 | 1012.0 |
| 20260505114504 | 52 | 333 | 2.0 | 5.0 | 0.00 | 0.00 | 0.00 | 63 | 1012.0 |
| 20260505114004 | 52 | 303 | 2.0 | 6.0 | 0.00 | 0.00 | 0.00 | 63 | 1012.0 |
| 20260505113504 | 52 | 346 | 2.0 | 5.0 | 0.00 | 0.00 | 0.00 | 62 | 1012.0 |
| 20260505113006 | 53 | 316 | 2.0 | 5.0 | 0.00 | 0.00 | 0.00 | 62 | 1011.9 |
| 20260505112504 | 53 | 313 | 2.0 | 5.0 | 0.00 | 0.00 | 0.00 | 62 | 1011.9 |
| 20260505112004 | 53 | 0 | 2.0 | 3.0 | 0.00 | 0.00 | 0.00 | 62 | 1011.9 |
| 20260505111004 | 54 | 0 | 1.0 | 3.0 | 0.00 | 0.00 | 0.00 | 61 | 1011.7 |
| 20260505110504 | 54 | 356 | 2.0 | 3.0 | 0.00 | 0.00 | 0.00 | 61 | 1011.7 |
| 20260505102004 | 55 | 331 | 2.0 | 9.0 | 0.00 | 0.00 | 0.00 | 56 | 1011.8 |
| 20260505101505 | 55 | 335 | 2.0 | 6.0 | 0.00 | 0.00 | 0.00 | 54 | 1011.8 |
| 20260505101004 | 55 | 0 | 0.0 | 3.0 | 0.00 | 0.00 | 0.00 | 53 | 1011.8 |
| 20260505100504 | 55 | 321 | 2.0 | 3.0 | 0.00 | 0.00 | 0.00 | 53 | 1011.8 |
| 20260505100003 | 55 | 321 | 2.0 | 3.0 | 0.00 | 0.00 | 0.00 | 53 | 1011.8 |
| 20260505095505 | 55 | 321 | 2.0 | 7.0 | 0.00 | 0.00 | 0.00 | 53 | 1011.8 |
| 20260505095004 | 55 | 335 | 2.0 | 7.0 | 0.00 | 0.00 | 0.00 | 51 | 1011.8 |
| 20260505094505 | 55 | 132 | 2.0 | 5.0 | 0.00 | 0.00 | 0.00 | 52 | 1011.8 |
| 20260505094004 | 55 | 335 | 2.0 | 5.0 | 0.00 | 0.00 | 0.00 | 54 | 1011.8 |
| 20260505093504 | 55 | 318 | 2.0 | 5.0 | 0.00 | 0.00 | 0.00 | 55 | 1011.8 |
| 20260505093004 | 55 | 245 | 2.0 | 7.0 | 0.00 | 0.00 | 0.00 | 53 | 1011.7 |
| 20260505092504 | 55 | 283 | 2.0 | 8.0 | 0.00 | 0.00 | 0.00 | 57 | 1011.7 |
| 20260505092005 | 55 | 278 | 2.0 | 2.0 | 0.00 | 0.00 | 0.00 | 60 | 1011.7 |
| 20260505091504 | 55 | 265 | 2.0 | 7.0 | 0.00 | 0.00 | 0.00 | 58 | 1011.7 |
| 20260505091004 | 55 | 216 | 2.0 | 5.0 | 0.00 | 0.00 | 0.00 | 57 | 1011.7 |
| 20260505090506 | 55 | 262 | 2.0 | 6.0 | 0.00 | 0.00 | 0.00 | 61 | 1011.7 |
| 20260505090004 | 55 | 237 | 2.0 | 3.0 | 0.00 | 0.00 | 0.00 | 62 | 1011.8 |
| 20260505085504 | 55 | 211 | 2.0 | 5.0 | 0.00 | 0.00 | 0.00 | 62 | 1011.8 |
| 20260505085004 | 55 | 251 | 2.0 | 6.0 | 0.00 | 0.00 | 0.00 | 62 | 1011.8 |
| 20260505084504 | 55 | 242 | 2.0 | 5.0 | 0.00 | 0.00 | 0.00 | 63 | 1011.8 |
| 20260505084005 | 55 | 223 | 2.0 | 6.0 | 0.00 | 0.00 | 0.00 | 63 | 1011.8 |
| 20260505083504 | 55 | 211 | 2.0 | 2.0 | 0.00 | 0.00 | 0.00 | 62 | 1011.8 |
| 20260505082003 | 56 | 211 | 2.0 | 6.0 | 0.00 | 0.00 | 0.00 | 62 | 1011.8 |
| 20260505081504 | 57 | 318 | 2.0 | 5.0 | 0.00 | 0.00 | 0.00 | 61 | 1011.7 |
| 20260505081004 | 57 | 242 | 2.0 | 7.0 | 0.00 | 0.00 | 0.00 | 61 | 1011.7 |
| 20260505080504 | 57 | 26 | 2.0 | 5.0 | 0.00 | 0.00 | 0.00 | 59 | 1011.7 |
| 20260505080006 | 57 | 223 | 2.0 | 5.0 | 0.00 | 0.00 | 0.00 | 56 | 1011.7 |
| 20260505075504 | 58 | 271 | 3.0 | 6.0 | 0.00 | 0.00 | 0.00 | 49 | 1011.7 |
| 20260505075004 | 58 | 245 | 3.0 | 6.0 | 0.00 | 0.00 | 0.00 | 50 | 1011.7 |
| 20260505074504 | 58 | 163 | 5.0 | 7.0 | 0.00 | 0.00 | 0.00 | 50 | 1011.6 |
| 20260505074003 | 59 | 356 | 5.0 | 3.0 | 0.00 | 0.00 | 0.00 | 49 | 1011.6 |
| 20260505073504 | 59 | 356 | 5.0 | 3.0 | 0.00 | 0.00 | 0.00 | 49 | 1011.6 |
| 20260505073006 | 59 | 356 | 5.0 | 3.0 | 0.00 | 0.00 | 0.00 | 49 | 1011.5 |
| 20260505072504 | 59 | 355 | 5.0 | 16.0 | 0.00 | 0.00 | 0.00 | 49 | 1011.5 |
| 20260505071503 | 59 | 343 | 6.0 | 8.0 | 0.00 | 0.00 | 0.00 | 50 | 1011.5 |
| 20260505071004 | 59 | 349 | 6.0 | 17.0 | 0.00 | 0.00 | 0.00 | 49 | 1011.5 |
| 20260505070004 | 59 | 310 | 7.0 | 9.0 | 0.00 | 0.00 | 0.00 | 50 | 1011.4 |
| 20260505065503 | 59 | 341 | 6.0 | 13.0 | 0.00 | 0.00 | 0.00 | 50 | 1011.4 |
| 20260505065006 | 59 | 342 | 6.0 | 13.0 | 0.00 | 0.00 | 0.00 | 51 | 1011.4 |
| 20260505064504 | 58 | 326 | 3.0 | 14.0 | 0.00 | 0.00 | 0.00 | 53 | 1011.5 |
| 20260505064004 | 58 | 317 | 3.0 | 8.0 | 0.00 | 0.00 | 0.00 | 55 | 1011.5 |
| 20260505063004 | 58 | 323 | 2.0 | 8.0 | 0.00 | 0.00 | 0.00 | 57 | 1011.3 |
| 20260505062505 | 58 | 307 | 2.0 | 8.0 | 0.00 | 0.00 | 0.00 | 57 | 1011.3 |
| 20260505062003 | 58 | 323 | 2.0 | 7.0 | 0.00 | 0.00 | 0.00 | 60 | 1011.3 |
| 20260505061506 | 58 | 359 | 2.0 | 8.0 | 0.00 | 0.00 | 0.00 | 59 | 1011.2 |
| 20260505061004 | 58 | 317 | 2.0 | 5.0 | 0.00 | 0.00 | 0.00 | 60 | 1011.2 |
| 20260505060506 | 58 | 352 | 2.0 | 8.0 | 0.00 | 0.00 | 0.00 | 62 | 1011.2 |
| 20260505060004 | 58 | 357 | 2.0 | 5.0 | 0.00 | 0.00 | 0.00 | 63 | 1011.2 |
| 20260505055505 | 58 | 321 | 1.0 | 2.0 | 0.00 | 0.00 | 0.00 | 62 | 1011.2 |
| 20260505055004 | 59 | 321 | 1.0 | 5.0 | 0.00 | 0.00 | 0.00 | 61 | 1011.2 |
| 20260505054505 | 59 | 356 | 2.0 | 2.0 | 0.00 | 0.00 | 0.00 | 61 | 1011.0 |
| 20260505054004 | 59 | 357 | 2.0 | 2.0 | 0.00 | 0.00 | 0.00 | 60 | 1011.0 |
| 20260505053505 | 59 | 349 | 1.0 | 2.0 | 0.00 | 0.00 | 0.00 | 60 | 1011.0 |
| 20260505053004 | 59 | 329 | 2.0 | 2.0 | 0.00 | 0.00 | 0.00 | 62 | 1011.1 |
| 20260505052505 | 59 | 329 | 2.0 | 2.0 | 0.00 | 0.00 | 0.00 | 62 | 1011.1 |
| 20260505052004 | 59 | 329 | 2.0 | 7.0 | 0.00 | 0.00 | 0.00 | 62 | 1011.1 |
| 20260505051504 | 59 | 312 | 2.0 | 9.0 | 0.00 | 0.00 | 0.00 | 63 | 1010.9 |
| 20260505051006 | 60 | 5 | 1.0 | 0.0 | 0.00 | 0.00 | 0.00 | 66 | 1010.9 |
| 20260505050504 | 60 | 15 | 1.0 | 0.0 | 0.00 | 0.00 | 0.00 | 66 | 1010.9 |
| 20260505041505 | 61 | 316 | 6.0 | 8.0 | 0.00 | 0.00 | 0.00 | 64 | 1010.1 |
| 20260505041004 | 61 | 336 | 6.0 | 12.0 | 0.00 | 0.00 | 0.00 | 64 | 1010.1 |
| 20260505040004 | 62 | 323 | 6.0 | 12.0 | 0.00 | 0.00 | 0.00 | 64 | 1009.9 |
| 20260505035504 | 62 | 322 | 6.0 | 12.0 | 0.00 | 0.00 | 0.00 | 64 | 1009.9 |
| 20260505035006 | 62 | 338 | 6.0 | 15.0 | 0.00 | 0.00 | 0.00 | 64 | 1009.9 |
| 20260505034504 | 63 | 323 | 7.0 | 6.0 | 0.00 | 0.00 | 0.00 | 63 | 1009.8 |
| 20260505034004 | 63 | 323 | 7.0 | 6.0 | 0.00 | 0.00 | 0.00 | 63 | 1009.8 |
| 20260505033505 | 63 | 323 | 7.0 | 6.0 | 0.00 | 0.00 | 0.00 | 63 | 1009.8 |
| 20260505033004 | 63 | 332 | 7.0 | 15.0 | 0.00 | 0.00 | 0.00 | 63 | 1009.5 |
| 20260505032506 | 63 | 342 | 7.0 | 12.0 | 0.00 | 0.00 | 0.00 | 63 | 1009.5 |
| 20260505032004 | 63 | 345 | 7.0 | 14.0 | 0.00 | 0.00 | 0.00 | 63 | 1009.5 |
| 20260505031505 | 63 | 325 | 7.0 | 15.0 | 0.00 | 0.00 | 0.00 | 62 | 1009.5 |
| 20260505031004 | 63 | 343 | 7.0 | 15.0 | 0.00 | 0.00 | 0.00 | 62 | 1009.5 |
| 20260505030504 | 64 | 341 | 7.0 | 13.0 | 0.00 | 0.00 | 0.00 | 62 | 1009.5 |
| 20260505030005 | 64 | 351 | 7.0 | 13.0 | 0.00 | 0.00 | 0.00 | 61 | 1009.4 |
| 20260505024503 | 65 | 338 | 6.0 | 13.0 | 0.00 | 0.00 | 0.00 | 59 | 1009.2 |
| 20260505024006 | 65 | 347 | 6.0 | 10.0 | 0.00 | 0.00 | 0.00 | 59 | 1009.2 |
| 20260505023504 | 65 | 335 | 8.0 | 16.0 | 0.00 | 0.00 | 0.00 | 58 | 1009.2 |
| 20260505023005 | 66 | 325 | 8.0 | 12.0 | 0.00 | 0.00 | 0.00 | 58 | 1009.1 |
| 20260505022503 | 66 | 340 | 7.0 | 18.0 | 0.00 | 0.00 | 0.00 | 58 | 1009.1 |
| 20260505022004 | 66 | 328 | 7.0 | 16.0 | 0.00 | 0.00 | 0.00 | 58 | 1009.1 |
| 20260505021503 | 66 | 325 | 6.0 | 18.0 | 0.00 | 0.00 | 0.00 | 58 | 1009.0 |
| 20260505020505 | 66 | 359 | 6.0 | 10.0 | 0.00 | 0.00 | 0.00 | 59 | 1009.0 |
| 20260505020004 | 66 | 344 | 6.0 | 15.0 | 0.00 | 0.00 | 0.00 | 59 | 1009.2 |